Time,TemperatureF,DewpointF,PressureIn,WindDirection,WindDirectionDegrees,WindSpeedMPH,WindSpeedGustMPH,Humidity,HourlyPrecipIn,Conditions,Clouds,dailyrainin,SoftwareType,DateUTC
2013-01-21 00:00:00,19.6,9.1,29.68,West,267,2.0,3.0,63,0.00,,,0.00,WeatherCatV1.02B3,2013-01-21 05:00:00,
2013-01-21 00:01:00,19.7,9.2,29.68,WSW,250,4.0,4.0,63,0.00,,,0.00,WeatherCatV1.02B3,2013-01-21 05:01:00,
2013-01-21 00:06:00,19.6,9.1,29.68,West,276,3.0,5.0,63,0.00,,,0.00,WeatherCatV1.02B3,2013-01-21 05:06:00,
2013-01-21 00:11:00,19.6,9.1,29.68,West,263,1.0,6.0,63,0.00,,,0.00,WeatherCatV1.02B3,2013-01-21 05:11:00,
2013-01-21 00:16:00,19.6,9.1,29.68,SW,228,3.0,4.0,63,0.00,,,0.00,WeatherCatV1.02B3,2013-01-21 05:16:00,
2013-01-21 00:21:00,19.6,9.1,29.68,West,264,3.0,7.0,63,0.00,,,0.00,WeatherCatV1.02B3,2013-01-21 05:21:00,
2013-01-21 00:26:00,19.5,9.3,29.68,WSW,257,6.0,10.0,64,0.00,,,0.00,WeatherCatV1.02B3,2013-01-21 05:26:00,
2013-01-21 00:31:00,19.6,9.8,29.68,West,269,6.0,12.0,65,0.00,,,0.00,WeatherCatV1.02B3,2013-01-21 05:31:00,
2013-01-21 00:36:00,19.5,9.7,29.68,West,274,6.0,8.0,65,0.00,,,0.00,WeatherCatV1.02B3,2013-01-21 05:36:00,
2013-01-21 00:41:00,19.4,9.2,29.67,West,273,2.0,7.0,64,0.00,,,0.00,WeatherCatV1.02B3,2013-01-21 05:41:00,
2013-01-21 00:46:00,19.3,9.1,29.67,WNW,287,3.0,9.0,64,0.00,,,0.00,WeatherCatV1.02B3,2013-01-21 05:46:00,
2013-01-21 00:51:00,19.3,9.1,29.67,West,270,4.0,5.0,64,0.00,,,0.00,WeatherCatV1.02B3,2013-01-21 05:51:00,
2013-01-21 00:56:00,19.2,9.4,29.67,WNW,291,4.0,7.0,65,0.00,,,0.00,WeatherCatV1.02B3,2013-01-21 05:56:00,
2013-01-21 01:01:00,19.1,9.0,29.67,WSW,250,6.0,6.0,64,0.00,,,0.00,WeatherCatV1.02B3,2013-01-21 06:01:00,
2013-01-21 01:06:00,19.1,9.3,29.66,WSW,241,4.0,5.0,65,0.00,,,0.00,WeatherCatV1.02B3,2013-01-21 06:06:00,
2013-01-21 01:11:00,19.1,9.6,29.66,WSW,252,3.0,8.0,66,0.00,,,0.00,WeatherCatV1.02B3,2013-01-21 06:11:00,
2013-01-21 01:16:00,19.0,9.5,29.66,WSW,258,5.0,10.0,66,0.00,,,0.00,WeatherCatV1.02B3,2013-01-21 06:16:00,
2013-01-21 01:21:00,18.9,9.4,29.66,WNW,298,8.0,9.0,66,0.00,,,0.00,WeatherCatV1.02B3,2013-01-21 06:21:00,
2013-01-21 01:26:00,18.8,9.4,29.66,WSW,257,5.0,9.0,66,0.00,,,0.00,WeatherCatV1.02B3,2013-01-21 06:26:00,
2013-01-21 01:31:00,18.8,9.7,29.66,West,278,5.0,7.0,67,0.00,,,0.00,WeatherCatV1.02B3,2013-01-21 06:31:00,
2013-01-21 01:36:00,18.7,9.3,29.66,NW,309,5.0,9.0,66,0.00,,,0.00,WeatherCatV1.02B3,2013-01-21 06:36:00,
2013-01-21 01:41:00,18.6,8.8,29.66,West,266,3.0,11.0,65,0.00,,,0.00,WeatherCatV1.02B3,2013-01-21 06:41:00,
2013-01-21 01:46:00,18.5,9.4,29.66,West,276,3.0,6.0,67,0.00,,,0.00,WeatherCatV1.02B3,2013-01-21 06:46:00,
2013-01-21 01:51:00,18.5,9.1,29.66,WSW,256,5.0,6.0,66,0.00,,,0.00,WeatherCatV1.02B3,2013-01-21 06:51:00,
2013-01-21 01:56:00,18.4,9.0,29.66,NW,310,1.0,5.0,66,0.00,,,0.00,WeatherCatV1.02B3,2013-01-21 06:56:00,
2013-01-21 02:01:00,18.3,8.9,29.66,WSW,256,4.0,7.0,66,0.00,,,0.00,WeatherCatV1.02B3,2013-01-21 07:01:00,
2013-01-21 02:06:00,18.3,8.2,29.66,West,277,5.0,9.0,64,0.00,,,0.00,WeatherCatV1.02B3,2013-01-21 07:06:00,
2013-01-21 02:11:00,18.2,8.1,29.66,WNW,285,3.0,6.0,64,0.00,,,0.00,WeatherCatV1.02B3,2013-01-21 07:11:00,
2013-01-21 02:16:00,18.2,8.1,29.66,WNW,297,5.0,6.0,64,0.00,,,0.00,WeatherCatV1.02B3,2013-01-21 07:16:00,
2013-01-21 02:21:00,18.2,8.1,29.66,West,276,2.0,6.0,64,0.00,,,0.00,WeatherCatV1.02B3,2013-01-21 07:21:00,
2013-01-21 02:26:00,18.2,7.8,29.66,WSW,245,8.0,10.0,63,0.00,,,0.00,WeatherCatV1.02B3,2013-01-21 07:26:00,
2013-01-21 02:31:00,18.1,7.7,29.65,WSW,249,4.0,8.0,63,0.00,,,0.00,WeatherCatV1.02B3,2013-01-21 07:31:00,
2013-01-21 02:36:00,18.1,7.7,29.65,West,264,5.0,10.0,63,0.00,,,0.00,WeatherCatV1.02B3,2013-01-21 07:36:00,
2013-01-21 02:41:00,18.0,7.9,29.65,West,264,3.0,5.0,64,0.00,,,0.00,WeatherCatV1.02B3,2013-01-21 07:41:00,
2013-01-21 02:46:00,18.0,7.6,29.65,West,267,2.0,6.0,63,0.00,,,0.00,WeatherCatV1.02B3,2013-01-21 07:46:00,
2013-01-21 02:51:00,18.0,7.6,29.65,West,268,3.0,9.0,63,0.00,,,0.00,WeatherCatV1.02B3,2013-01-21 07:51:00,
2013-01-21 02:56:00,17.9,7.5,29.65,WNW,287,4.0,9.0,63,0.00,,,0.00,WeatherCatV1.02B3,2013-01-21 07:56:00,
2013-01-21 03:01:00,17.9,7.8,29.65,West,264,3.0,10.0,64,0.00,,,0.00,WeatherCatV1.02B3,2013-01-21 08:01:00,
2013-01-21 03:06:00,17.9,7.8,29.65,WNW,283,7.0,8.0,64,0.00,,,0.00,WeatherCatV1.02B3,2013-01-21 08:06:00,
2013-01-21 03:11:00,17.8,8.1,29.65,West,264,6.0,11.0,65,0.00,,,0.00,WeatherCatV1.02B3,2013-01-21 08:11:00,
2013-01-21 03:16:00,17.8,7.7,29.65,West,267,2.0,6.0,64,0.00,,,0.00,WeatherCatV1.02B3,2013-01-21 08:16:00,
2013-01-21 03:21:00,17.7,8.0,29.65,West,276,3.0,5.0,65,0.00,,,0.00,WeatherCatV1.02B3,2013-01-21 08:21:00,
2013-01-21 03:26:00,17.6,7.5,29.65,West,259,5.0,11.0,64,0.00,,,0.00,WeatherCatV1.02B3,2013-01-21 08:26:00,
2013-01-21 03:31:00,17.5,7.4,29.64,SW,232,9.0,9.0,64,0.00,,,0.00,WeatherCatV1.02B3,2013-01-21 08:31:00,
2013-01-21 03:36:00,17.5,7.4,29.64,WSW,250,4.0,9.0,64,0.00,,,0.00,WeatherCatV1.02B3,2013-01-21 08:36:00,
2013-01-21 03:41:00,17.4,7.0,29.64,West,267,6.0,8.0,63,0.00,,,0.00,WeatherCatV1.02B3,2013-01-21 08:41:00,
2013-01-21 03:46:00,17.5,7.4,29.64,WSW,252,6.0,10.0,64,0.00,,,0.00,WeatherCatV1.02B3,2013-01-21 08:46:00,
2013-01-21 03:51:00,17.5,7.4,29.64,West,276,3.0,7.0,64,0.00,,,0.00,WeatherCatV1.02B3,2013-01-21 08:51:00,
2013-01-21 03:56:00,17.5,8.1,29.64,West,273,3.0,5.0,66,0.00,,,0.00,WeatherCatV1.02B3,2013-01-21 08:56:00,
2013-01-21 04:01:00,17.5,7.8,29.63,WSW,255,6.0,13.0,65,0.00,,,0.00,WeatherCatV1.02B3,2013-01-21 09:01:00,
2013-01-21 04:06:00,17.4,8.0,29.63,WSW,248,5.0,6.0,66,0.00,,,0.00,WeatherCatV1.02B3,2013-01-21 09:06:00,
2013-01-21 04:11:00,17.4,8.0,29.63,West,267,6.0,9.0,66,0.00,,,0.00,WeatherCatV1.02B3,2013-01-21 09:11:00,
2013-01-21 04:16:00,17.3,7.9,29.63,West,276,5.0,8.0,66,0.00,,,0.00,WeatherCatV1.02B3,2013-01-21 09:16:00,
2013-01-21 04:22:00,17.3,7.6,29.63,West,264,5.0,11.0,65,0.00,,,0.00,WeatherCatV1.02B3,2013-01-21 09:22:00,
2013-01-21 04:26:00,17.3,7.9,29.62,WNW,290,6.0,10.0,66,0.00,,,0.00,WeatherCatV1.02B3,2013-01-21 09:26:00,
2013-01-21 04:32:00,17.3,8.3,29.62,West,273,6.0,8.0,67,0.00,,,0.00,WeatherCatV1.02B3,2013-01-21 09:32:00,
2013-01-21 04:37:00,17.2,7.8,29.62,WNW,297,6.0,8.0,66,0.00,,,0.00,WeatherCatV1.02B3,2013-01-21 09:37:00,
2013-01-21 04:42:00,17.1,7.7,29.62,WNW,287,5.0,7.0,66,0.00,,,0.00,WeatherCatV1.02B3,2013-01-21 09:42:00,
2013-01-21 04:47:00,17.0,7.6,29.62,WSW,255,9.0,9.0,66,0.00,,,0.00,WeatherCatV1.02B3,2013-01-21 09:47:00,
2013-01-21 04:51:00,17.0,8.0,29.62,West,259,4.0,10.0,67,0.00,,,0.00,WeatherCatV1.02B3,2013-01-21 09:51:00,
2013-01-21 04:56:00,16.8,8.4,29.62,WSW,249,7.0,13.0,69,0.00,,,0.00,WeatherCatV1.02B3,2013-01-21 09:56:00,
2013-01-21 05:01:00,16.8,8.7,29.62,WSW,249,4.0,6.0,70,0.00,,,0.00,WeatherCatV1.02B3,2013-01-21 10:01:00,
2013-01-21 05:06:00,16.8,8.4,29.62,West,269,4.0,9.0,69,0.00,,,0.00,WeatherCatV1.02B3,2013-01-21 10:06:00,
2013-01-21 05:12:00,16.7,8.0,29.62,SW,233,8.0,12.0,68,0.00,,,0.00,WeatherCatV1.02B3,2013-01-21 10:12:00,
2013-01-21 05:16:00,16.6,8.2,29.62,West,259,7.0,11.0,69,0.00,,,0.00,WeatherCatV1.02B3,2013-01-21 10:16:00,
2013-01-21 05:21:00,16.4,8.7,29.62,West,267,5.0,14.0,71,0.00,,,0.00,WeatherCatV1.02B3,2013-01-21 10:21:00,
2013-01-21 05:27:00,16.3,8.6,29.62,West,259,5.0,8.0,71,0.00,,,0.00,WeatherCatV1.02B3,2013-01-21 10:27:00,
2013-01-21 05:32:00,16.3,8.6,29.62,WNW,287,4.0,9.0,71,0.00,,,0.00,WeatherCatV1.02B3,2013-01-21 10:32:00,
2013-01-21 05:37:00,16.3,8.6,29.61,WSW,242,7.0,10.0,71,0.00,,,0.00,WeatherCatV1.02B3,2013-01-21 10:37:00,
2013-01-21 05:42:00,16.2,8.8,29.61,West,260,6.0,11.0,72,0.00,,,0.00,WeatherCatV1.02B3,2013-01-21 10:42:00,
2013-01-21 05:47:00,16.2,8.8,29.61,West,274,5.0,9.0,72,0.00,,,0.00,WeatherCatV1.02B3,2013-01-21 10:47:00,
2013-01-21 05:51:00,16.1,9.0,29.61,SW,221,2.0,7.0,73,0.00,,,0.00,WeatherCatV1.02B3,2013-01-21 10:51:00,
2013-01-21 05:56:00,16.0,8.6,29.61,WSW,257,7.0,11.0,72,0.00,,,0.00,WeatherCatV1.02B3,2013-01-21 10:56:00,
2013-01-21 06:01:00,15.9,8.5,29.61,WSW,253,6.0,15.0,72,0.00,,,0.00,WeatherCatV1.02B3,2013-01-21 11:01:00,
2013-01-21 06:06:00,15.9,8.5,29.61,West,271,6.0,13.0,72,0.00,,,0.00,WeatherCatV1.02B3,2013-01-21 11:06:00,
2013-01-21 06:12:00,15.8,8.4,29.61,West,280,4.0,6.0,72,0.00,,,0.00,WeatherCatV1.02B3,2013-01-21 11:12:00,
2013-01-21 06:17:00,15.8,8.7,29.61,West,264,4.0,7.0,73,0.00,,,0.00,WeatherCatV1.02B3,2013-01-21 11:17:00,
2013-01-21 06:21:00,15.8,8.4,29.60,WSW,255,10.0,11.0,72,0.00,,,0.00,WeatherCatV1.02B3,2013-01-21 11:21:00,
2013-01-21 06:26:00,15.7,7.7,29.60,West,259,6.0,13.0,70,0.00,,,0.00,WeatherCatV1.02B3,2013-01-21 11:26:00,
2013-01-21 06:31:00,15.6,7.6,29.60,West,266,6.0,11.0,70,0.00,,,0.00,WeatherCatV1.02B3,2013-01-21 11:31:00,
2013-01-21 06:36:00,15.4,7.4,29.60,West,274,4.0,11.0,70,0.00,,,0.00,WeatherCatV1.02B3,2013-01-21 11:36:00,
2013-01-21 06:42:00,15.4,7.7,29.61,WSW,255,14.0,14.0,71,0.00,,,0.00,WeatherCatV1.02B3,2013-01-21 11:42:00,
2013-01-21 06:47:00,15.4,7.7,29.61,West,280,3.0,8.0,71,0.00,,,0.00,WeatherCatV1.02B3,2013-01-21 11:47:00,
2013-01-21 06:52:00,15.3,7.9,29.61,WNW,287,8.0,13.0,72,0.00,,,0.00,WeatherCatV1.02B3,2013-01-21 11:52:00,
2013-01-21 06:57:00,15.2,8.1,29.61,WSW,250,8.0,10.0,73,0.00,,,0.00,WeatherCatV1.02B3,2013-01-21 11:57:00,
2013-01-21 07:02:00,15.2,7.5,29.61,WSW,248,4.0,8.0,71,0.00,,,0.00,WeatherCatV1.02B3,2013-01-21 12:02:00,
2013-01-21 07:07:00,15.2,7.2,29.61,WSW,240,9.0,12.0,70,0.00,,,0.00,WeatherCatV1.02B3,2013-01-21 12:07:00,
2013-01-21 07:12:00,15.0,7.0,29.61,SW,236,5.0,16.0,70,0.00,,,0.00,WeatherCatV1.02B3,2013-01-21 12:12:00,
2013-01-21 07:17:00,14.8,7.1,29.61,WNW,295,9.0,13.0,71,0.00,,,0.00,WeatherCatV1.02B3,2013-01-21 12:17:00,
2013-01-21 07:22:00,14.7,7.3,29.61,West,260,6.0,8.0,72,0.00,,,0.00,WeatherCatV1.02B3,2013-01-21 12:22:00,
2013-01-21 07:27:00,14.7,7.0,29.61,West,270,4.0,7.0,71,0.00,,,0.00,WeatherCatV1.02B3,2013-01-21 12:27:00,
2013-01-21 07:32:00,14.7,7.0,29.61,West,276,2.0,8.0,71,0.00,,,0.00,WeatherCatV1.02B3,2013-01-21 12:32:00,
2013-01-21 07:37:00,14.7,6.4,29.61,West,269,5.0,9.0,69,0.00,,,0.00,WeatherCatV1.02B3,2013-01-21 12:37:00,
2013-01-21 07:42:00,14.7,5.4,29.61,West,272,5.0,13.0,66,0.00,,,0.00,WeatherCatV1.02B3,2013-01-21 12:42:00,
2013-01-21 07:47:00,14.6,4.7,29.61,WSW,249,7.0,9.0,64,0.00,,,0.00,WeatherCatV1.02B3,2013-01-21 12:47:00,
2013-01-21 07:52:00,14.5,4.9,29.60,West,264,5.0,9.0,65,0.00,,,0.00,WeatherCatV1.02B3,2013-01-21 12:52:00,
2013-01-21 07:57:00,14.5,6.2,29.60,West,259,3.0,8.0,69,0.00,,,0.00,WeatherCatV1.02B3,2013-01-21 12:57:00,
2013-01-21 08:02:00,14.2,8.0,29.60,WNW,298,4.0,9.0,76,0.00,,,0.00,WeatherCatV1.02B3,2013-01-21 13:02:00,
2013-01-21 08:07:00,14.1,7.7,29.60,WNW,288,9.0,10.0,75,0.00,,,0.00,WeatherCatV1.02B3,2013-01-21 13:07:00,
2013-01-21 08:12:00,13.9,8.6,29.60,WSW,237,6.0,12.0,79,0.00,,,0.00,WeatherCatV1.02B3,2013-01-21 13:12:00,
2013-01-21 08:17:00,13.8,8.5,29.60,WSW,252,10.0,14.0,79,0.00,,,0.00,WeatherCatV1.02B3,2013-01-21 13:17:00,
2013-01-21 08:22:00,13.8,7.7,29.60,WSW,238,8.0,13.0,76,0.00,,,0.00,WeatherCatV1.02B3,2013-01-21 13:22:00,
2013-01-21 08:27:00,13.6,8.6,29.60,West,277,5.0,13.0,80,0.00,,,0.00,WeatherCatV1.02B3,2013-01-21 13:27:00,
2013-01-21 08:32:00,13.6,8.6,29.60,WSW,252,8.0,12.0,80,0.00,,,0.00,WeatherCatV1.02B3,2013-01-21 13:32:00,
2013-01-21 08:37:00,13.6,7.8,29.60,West,278,8.0,10.0,77,0.00,,,0.00,WeatherCatV1.02B3,2013-01-21 13:37:00,
2013-01-21 08:42:00,13.6,7.5,29.61,West,267,6.0,8.0,76,0.00,,,0.00,WeatherCatV1.02B3,2013-01-21 13:42:00,
2013-01-21 08:47:00,13.4,7.6,29.61,WSW,246,11.0,11.0,77,0.00,,,0.00,WeatherCatV1.02B3,2013-01-21 13:47:00,
2013-01-21 08:52:00,13.7,6.7,29.61,WSW,257,8.0,8.0,73,0.00,,,0.00,WeatherCatV1.02B3,2013-01-21 13:52:00,
2013-01-21 08:57:00,14.0,6.0,29.61,WNW,293,11.0,15.0,70,0.00,,,0.00,WeatherCatV1.02B3,2013-01-21 13:57:00,
2013-01-21 09:02:00,14.0,5.4,29.61,West,267,16.0,23.0,68,0.00,,,0.00,WeatherCatV1.02B3,2013-01-21 14:02:00,
2013-01-21 09:07:00,13.9,6.3,29.62,WSW,255,8.0,11.0,71,0.00,,,0.00,WeatherCatV1.02B3,2013-01-21 14:07:00,
2013-01-21 09:12:00,13.9,5.6,29.61,WSW,240,8.0,10.0,69,0.00,,,0.00,WeatherCatV1.02B3,2013-01-21 14:12:00,
2013-01-21 09:17:00,14.0,5.1,29.61,WNW,293,6.0,11.0,67,0.00,,,0.00,WeatherCatV1.02B3,2013-01-21 14:17:00,
2013-01-21 09:22:00,14.0,5.7,29.62,WSW,245,12.0,14.0,69,0.00,,,0.00,WeatherCatV1.02B3,2013-01-21 14:22:00,
2013-01-21 09:27:00,13.9,5.0,29.61,WNW,285,5.0,12.0,67,0.00,,,0.00,WeatherCatV1.02B3,2013-01-21 14:27:00,
2013-01-21 09:32:00,14.0,5.7,29.61,WSW,252,11.0,11.0,69,0.00,,,0.00,WeatherCatV1.02B3,2013-01-21 14:32:00,
2013-01-21 09:37:00,14.1,4.5,29.62,West,273,9.0,13.0,65,0.00,,,0.00,WeatherCatV1.02B3,2013-01-21 14:37:00,
2013-01-21 09:42:00,14.1,4.9,29.62,WSW,252,11.0,13.0,66,0.00,,,0.00,WeatherCatV1.02B3,2013-01-21 14:42:00,
2013-01-21 09:47:00,14.1,4.2,29.61,WSW,248,6.0,20.0,64,0.00,,,0.00,WeatherCatV1.02B3,2013-01-21 14:47:00,
2013-01-21 09:52:00,14.1,3.5,29.62,WSW,242,7.0,9.0,62,0.00,,,0.00,WeatherCatV1.02B3,2013-01-21 14:52:00,
2013-01-21 09:57:00,14.1,2.4,29.62,WNW,287,6.0,12.0,59,0.00,,,0.00,WeatherCatV1.02B3,2013-01-21 14:57:00,
2013-01-21 10:02:00,14.0,3.1,29.62,West,260,5.0,7.0,61,0.00,,,0.00,WeatherCatV1.02B3,2013-01-21 15:02:00,
2013-01-21 10:07:00,14.2,3.3,29.62,West,267,11.0,14.0,61,0.00,,,0.00,WeatherCatV1.02B3,2013-01-21 15:07:00,
2013-01-21 10:12:00,14.3,3.7,29.62,West,268,5.0,14.0,62,0.00,,,0.00,WeatherCatV1.02B3,2013-01-21 15:12:00,
2013-01-21 10:17:00,14.3,3.3,29.62,WNW,285,16.0,16.0,61,0.00,,,0.00,WeatherCatV1.02B3,2013-01-21 15:17:00,
2013-01-21 10:22:00,14.3,3.0,29.63,West,276,6.0,14.0,60,0.00,,,0.00,WeatherCatV1.02B3,2013-01-21 15:22:00,
2013-01-21 10:27:00,14.3,2.6,29.62,WSW,242,7.0,13.0,59,0.00,,,0.00,WeatherCatV1.02B3,2013-01-21 15:27:00,
2013-01-21 10:32:00,14.5,3.9,29.63,SSW,212,13.0,13.0,62,0.00,,,0.00,WeatherCatV1.02B3,2013-01-21 15:32:00,
2013-01-21 10:37:00,14.9,2.8,29.62,West,263,8.0,14.0,58,0.00,,,0.00,WeatherCatV1.02B3,2013-01-21 15:37:00,
2013-01-21 10:42:00,15.1,4.5,29.62,West,259,8.0,14.0,62,0.00,,,0.00,WeatherCatV1.02B3,2013-01-21 15:42:00,
2013-01-21 10:47:00,15.0,3.7,29.62,West,270,5.0,6.0,60,0.00,,,0.00,WeatherCatV1.02B3,2013-01-21 15:47:00,
2013-01-21 10:52:00,14.9,3.6,29.62,WNW,283,7.0,13.0,60,0.00,,,0.00,WeatherCatV1.02B3,2013-01-21 15:52:00,
2013-01-21 10:57:00,14.5,3.2,29.62,WNW,291,5.0,8.0,60,0.00,,,0.00,WeatherCatV1.02B3,2013-01-21 15:57:00,
2013-01-21 11:02:00,14.3,3.3,29.62,WSW,250,7.0,11.0,61,0.00,,,0.00,WeatherCatV1.02B3,2013-01-21 16:02:00,
2013-01-21 11:07:00,14.0,3.8,29.63,West,271,6.0,14.0,63,0.00,,,0.00,WeatherCatV1.02B3,2013-01-21 16:07:00,
2013-01-21 11:12:00,13.7,6.4,29.63,West,273,5.0,9.0,72,0.00,,,0.00,WeatherCatV1.02B3,2013-01-21 16:12:00,
2013-01-21 11:17:00,13.0,8.0,29.63,West,269,5.0,11.0,80,0.00,,,0.00,WeatherCatV1.02B3,2013-01-21 16:17:00,
2013-01-21 11:22:00,12.6,7.6,29.63,West,268,5.0,10.0,80,0.00,,,0.00,WeatherCatV1.02B3,2013-01-21 16:22:00,
2013-01-21 11:27:00,12.5,8.3,29.63,WNW,298,5.0,10.0,83,0.00,,,0.00,WeatherCatV1.02B3,2013-01-21 16:27:00,
2013-01-21 11:30:00,13.3,5.1,29.62,West,270,8.0,20.0,69,0.00,,,0.00,WeatherCatV1.02B3,2013-01-21 16:30:00,
2013-01-21 11:32:00,12.8,8.1,29.62,WSW,252,4.0,9.0,81,0.00,,,0.00,WeatherCatV1.02B3,2013-01-21 16:32:00,
2013-01-21 11:35:00,13.3,5.1,29.62,West,270,8.0,20.0,69,0.00,,,0.00,WeatherCatV1.02B3,2013-01-21 16:35:00,
2013-01-21 11:40:00,13.3,5.1,29.62,West,270,8.0,20.0,69,0.00,,,0.00,WeatherCatV1.02B3,2013-01-21 16:40:00,
2013-01-21 11:45:00,13.3,5.1,29.62,West,270,8.0,20.0,69,0.00,,,0.00,WeatherCatV1.02B3,2013-01-21 16:45:00,
2013-01-21 11:50:00,13.3,5.1,29.62,West,270,8.0,20.0,69,0.00,,,0.00,WeatherCatV1.02B3,2013-01-21 16:50:00,
2013-01-21 11:55:00,13.3,5.1,29.62,West,270,8.0,20.0,69,0.00,,,0.00,WeatherCatV1.02B3,2013-01-21 16:55:00,
2013-01-21 12:00:00,12.5,5.8,29.61,West,270,8.0,18.0,74,0.00,,,0.00,WeatherCatV1.02B3,2013-01-21 17:00:00,
2013-01-21 12:05:00,12.5,5.8,29.61,West,270,8.0,18.0,74,0.00,,,0.00,WeatherCatV1.02B3,2013-01-21 17:05:00,
2013-01-21 12:10:00,12.5,5.8,29.61,West,270,8.0,18.0,74,0.00,,,0.00,WeatherCatV1.02B3,2013-01-21 17:10:00,
2013-01-21 12:15:00,12.5,5.8,29.61,West,270,8.0,18.0,74,0.00,,,0.00,WeatherCatV1.02B3,2013-01-21 17:15:00,
2013-01-21 12:20:00,12.5,5.8,29.61,West,270,8.0,18.0,74,0.00,,,0.00,WeatherCatV1.02B3,2013-01-21 17:20:00,
2013-01-21 12:25:00,12.5,5.8,29.61,West,270,8.0,18.0,74,0.00,,,0.00,WeatherCatV1.02B3,2013-01-21 17:25:00,
2013-01-21 12:30:00,12.5,5.8,29.61,West,270,8.0,18.0,74,0.00,,,0.00,WeatherCatV1.02B3,2013-01-21 17:30:00,
2013-01-21 12:35:00,11.8,7.1,29.61,WSW,248,7.0,17.0,81,0.00,,,0.00,WeatherCatV1.02B3,2013-01-21 17:35:00,
2013-01-21 12:40:00,11.8,7.1,29.61,WSW,248,7.0,17.0,81,0.00,,,0.00,WeatherCatV1.02B3,2013-01-21 17:40:00,
2013-01-21 12:45:00,11.8,7.1,29.61,WSW,248,7.0,17.0,81,0.00,,,0.00,WeatherCatV1.02B3,2013-01-21 17:45:00,
2013-01-21 12:50:00,11.8,7.1,29.61,WSW,248,7.0,17.0,81,0.00,,,0.00,WeatherCatV1.02B3,2013-01-21 17:50:00,
2013-01-21 12:55:00,11.8,7.1,29.61,WSW,248,7.0,17.0,81,0.00,,,0.00,WeatherCatV1.02B3,2013-01-21 17:55:00,
2013-01-21 13:00:00,11.8,7.1,29.61,WSW,248,7.0,17.0,81,0.00,,,0.00,WeatherCatV1.02B3,2013-01-21 18:00:00,
2013-01-21 13:05:00,11.4,5.0,29.62,West,270,7.0,21.0,75,0.00,,,0.00,WeatherCatV1.02B3,2013-01-21 18:05:00,
2013-01-21 13:10:00,11.4,5.0,29.62,West,270,7.0,21.0,75,0.00,,,0.00,WeatherCatV1.02B3,2013-01-21 18:10:00,
2013-01-21 13:15:00,11.4,5.0,29.62,West,270,7.0,21.0,75,0.00,,,0.00,WeatherCatV1.02B3,2013-01-21 18:15:00,
2013-01-21 13:20:00,11.4,5.0,29.62,West,270,7.0,21.0,75,0.00,,,0.00,WeatherCatV1.02B3,2013-01-21 18:20:00,
2013-01-21 13:25:00,11.4,5.0,29.62,West,270,7.0,21.0,75,0.00,,,0.00,WeatherCatV1.02B3,2013-01-21 18:25:00,
2013-01-21 13:30:00,11.0,3.8,29.63,West,270,7.0,16.0,72,0.00,,,0.00,WeatherCatV1.02B3,2013-01-21 18:30:00,
2013-01-21 13:35:00,11.0,3.8,29.63,West,270,7.0,16.0,72,0.00,,,0.00,WeatherCatV1.02B3,2013-01-21 18:35:00,
2013-01-21 13:40:00,11.0,3.8,29.63,West,270,7.0,16.0,72,0.00,,,0.00,WeatherCatV1.02B3,2013-01-21 18:40:00,
2013-01-21 13:45:00,11.0,3.8,29.63,West,270,7.0,16.0,72,0.00,,,0.00,WeatherCatV1.02B3,2013-01-21 18:45:00,
2013-01-21 13:50:00,11.0,3.8,29.63,West,270,7.0,16.0,72,0.00,,,0.00,WeatherCatV1.02B3,2013-01-21 18:50:00,
2013-01-21 13:55:00,11.0,3.8,29.63,West,270,7.0,16.0,72,0.00,,,0.00,WeatherCatV1.02B3,2013-01-21 18:55:00,
2013-01-21 14:00:00,11.0,3.8,29.63,West,270,7.0,16.0,72,0.00,,,0.00,WeatherCatV1.02B3,2013-01-21 19:00:00,
2013-01-21 14:05:00,11.0,5.8,29.64,West,270,6.0,15.0,79,0.00,,,0.00,WeatherCatV1.02B3,2013-01-21 19:05:00,
2013-01-21 14:10:00,11.0,5.8,29.64,West,270,6.0,15.0,79,0.00,,,0.00,WeatherCatV1.02B3,2013-01-21 19:10:00,
2013-01-21 14:15:00,11.0,5.8,29.64,West,270,6.0,15.0,79,0.00,,,0.00,WeatherCatV1.02B3,2013-01-21 19:15:00,
2013-01-21 14:20:00,11.0,5.8,29.64,West,270,6.0,15.0,79,0.00,,,0.00,WeatherCatV1.02B3,2013-01-21 19:20:00,
2013-01-21 14:25:00,11.0,5.8,29.64,West,270,6.0,15.0,79,0.00,,,0.00,WeatherCatV1.02B3,2013-01-21 19:25:00,
2013-01-21 14:30:00,11.0,5.8,29.64,West,270,6.0,15.0,79,0.00,,,0.00,WeatherCatV1.02B3,2013-01-21 19:30:00,
2013-01-21 14:35:00,11.1,4.2,29.64,West,270,7.0,16.0,73,0.00,,,0.00,WeatherCatV1.02B3,2013-01-21 19:35:00,
2013-01-21 14:40:00,11.1,4.2,29.64,West,270,7.0,16.0,73,0.00,,,0.00,WeatherCatV1.02B3,2013-01-21 19:40:00,
2013-01-21 14:45:00,11.1,4.2,29.64,West,270,7.0,16.0,73,0.00,,,0.00,WeatherCatV1.02B3,2013-01-21 19:45:00,
2013-01-21 14:50:00,11.1,4.2,29.64,West,270,7.0,16.0,73,0.00,,,0.00,WeatherCatV1.02B3,2013-01-21 19:50:00,
2013-01-21 14:55:00,11.1,4.2,29.64,West,270,7.0,16.0,73,0.00,,,0.00,WeatherCatV1.02B3,2013-01-21 19:55:00,
2013-01-21 15:00:00,11.0,4.4,29.65,West,270,6.0,14.0,74,0.00,,,0.00,WeatherCatV1.02B3,2013-01-21 20:00:00,
2013-01-21 15:05:00,11.0,4.4,29.65,West,270,6.0,14.0,74,0.00,,,0.00,WeatherCatV1.02B3,2013-01-21 20:05:00,
2013-01-21 15:10:00,11.0,4.4,29.65,West,270,6.0,14.0,74,0.00,,,0.00,WeatherCatV1.02B3,2013-01-21 20:10:00,
2013-01-21 15:15:00,11.0,4.4,29.65,West,270,6.0,14.0,74,0.00,,,0.00,WeatherCatV1.02B3,2013-01-21 20:15:00,
2013-01-21 15:20:00,11.0,4.4,29.65,West,270,6.0,14.0,74,0.00,,,0.00,WeatherCatV1.02B3,2013-01-21 20:20:00,
2013-01-21 15:25:00,11.0,4.4,29.65,West,270,6.0,14.0,74,0.00,,,0.00,WeatherCatV1.02B3,2013-01-21 20:25:00,
2013-01-21 15:30:00,11.0,4.4,29.65,West,270,6.0,14.0,74,0.00,,,0.00,WeatherCatV1.02B3,2013-01-21 20:30:00,
2013-01-21 15:35:00,11.4,3.2,29.66,West,270,6.0,17.0,69,0.00,,,0.00,WeatherCatV1.02B3,2013-01-21 20:35:00,
2013-01-21 15:40:00,11.4,3.2,29.66,West,270,6.0,17.0,69,0.00,,,0.00,WeatherCatV1.02B3,2013-01-21 20:40:00,
2013-01-21 15:45:00,11.4,3.2,29.66,West,270,6.0,17.0,69,0.00,,,0.00,WeatherCatV1.02B3,2013-01-21 20:45:00,
2013-01-21 15:50:00,11.4,3.2,29.66,West,270,6.0,17.0,69,0.00,,,0.00,WeatherCatV1.02B3,2013-01-21 20:50:00,
2013-01-21 15:55:00,11.4,3.2,29.66,West,270,6.0,17.0,69,0.00,,,0.00,WeatherCatV1.02B3,2013-01-21 20:55:00,
2013-01-21 16:00:00,11.4,3.2,29.66,West,270,6.0,17.0,69,0.00,,,0.00,WeatherCatV1.02B3,2013-01-21 21:00:00,
2013-01-21 16:05:00,11.3,3.8,29.66,West,270,5.0,13.0,71,0.00,,,0.00,WeatherCatV1.02B3,2013-01-21 21:05:00,
2013-01-21 16:10:00,11.3,3.8,29.66,West,270,5.0,13.0,71,0.00,,,0.00,WeatherCatV1.02B3,2013-01-21 21:10:00,
2013-01-21 16:15:00,11.3,3.8,29.66,West,270,5.0,13.0,71,0.00,,,0.00,WeatherCatV1.02B3,2013-01-21 21:15:00,
2013-01-21 16:20:00,11.3,3.8,29.66,West,270,5.0,13.0,71,0.00,,,0.00,WeatherCatV1.02B3,2013-01-21 21:20:00,
2013-01-21 16:25:00,11.3,3.8,29.66,West,270,5.0,13.0,71,0.00,,,0.00,WeatherCatV1.02B3,2013-01-21 21:25:00,
2013-01-21 16:30:00,11.3,3.8,29.66,West,270,5.0,13.0,71,0.00,,,0.00,WeatherCatV1.02B3,2013-01-21 21:30:00,
2013-01-21 16:35:00,11.6,4.4,29.66,West,270,6.0,15.0,72,0.00,,,0.00,WeatherCatV1.02B3,2013-01-21 21:35:00,
2013-01-21 16:40:00,11.6,4.4,29.66,West,270,6.0,15.0,72,0.00,,,0.00,WeatherCatV1.02B3,2013-01-21 21:40:00,
2013-01-21 16:45:00,11.6,4.4,29.66,West,270,6.0,15.0,72,0.00,,,0.00,WeatherCatV1.02B3,2013-01-21 21:45:00,
2013-01-21 16:50:00,11.6,4.4,29.66,West,270,6.0,15.0,72,0.00,,,0.00,WeatherCatV1.02B3,2013-01-21 21:50:00,
2013-01-21 16:55:00,11.6,4.4,29.66,West,270,6.0,15.0,72,0.00,,,0.00,WeatherCatV1.02B3,2013-01-21 21:55:00,
2013-01-21 17:00:00,11.6,3.7,29.67,West,270,6.0,15.0,70,0.00,,,0.00,WeatherCatV1.02B3,2013-01-21 22:00:00,
2013-01-21 17:05:00,11.6,3.7,29.67,West,270,6.0,15.0,70,0.00,,,0.00,WeatherCatV1.02B3,2013-01-21 22:05:00,
2013-01-21 17:10:00,11.6,3.7,29.67,West,270,6.0,15.0,70,0.00,,,0.00,WeatherCatV1.02B3,2013-01-21 22:10:00,
2013-01-21 17:15:00,11.6,3.7,29.67,West,270,6.0,15.0,70,0.00,,,0.00,WeatherCatV1.02B3,2013-01-21 22:15:00,
2013-01-21 17:20:00,11.6,3.7,29.67,West,270,6.0,15.0,70,0.00,,,0.00,WeatherCatV1.02B3,2013-01-21 22:20:00,
2013-01-21 17:25:00,11.6,3.7,29.67,West,270,6.0,15.0,70,0.00,,,0.00,WeatherCatV1.02B3,2013-01-21 22:25:00,
2013-01-21 17:30:00,11.6,3.7,29.67,West,270,6.0,15.0,70,0.00,,,0.00,WeatherCatV1.02B3,2013-01-21 22:30:00,
2013-01-21 17:35:00,11.5,3.0,29.67,West,270,5.0,12.0,68,0.00,,,0.00,WeatherCatV1.02B3,2013-01-21 22:35:00,
2013-01-21 17:40:00,11.5,3.0,29.67,West,270,5.0,12.0,68,0.00,,,0.00,WeatherCatV1.02B3,2013-01-21 22:40:00,
2013-01-21 17:45:00,11.5,3.0,29.67,West,270,5.0,12.0,68,0.00,,,0.00,WeatherCatV1.02B3,2013-01-21 22:45:00,
2013-01-21 17:50:00,11.5,3.0,29.67,West,270,5.0,12.0,68,0.00,,,0.00,WeatherCatV1.02B3,2013-01-21 22:50:00,
2013-01-21 17:55:00,11.5,3.0,29.67,West,270,5.0,12.0,68,0.00,,,0.00,WeatherCatV1.02B3,2013-01-21 22:55:00,
2013-01-21 18:00:00,11.5,3.0,29.67,West,270,5.0,12.0,68,0.00,,,0.00,WeatherCatV1.02B3,2013-01-21 23:00:00,
2013-01-21 18:05:00,11.3,1.9,29.68,West,270,7.0,15.0,65,0.00,,,0.00,WeatherCatV1.02B3,2013-01-21 23:05:00,
2013-01-21 18:10:00,11.3,1.9,29.68,West,270,7.0,15.0,65,0.00,,,0.00,WeatherCatV1.02B3,2013-01-21 23:10:00,
2013-01-21 18:15:00,11.3,1.9,29.68,West,270,7.0,15.0,65,0.00,,,0.00,WeatherCatV1.02B3,2013-01-21 23:15:00,
2013-01-21 18:20:00,11.3,1.9,29.68,West,270,7.0,15.0,65,0.00,,,0.00,WeatherCatV1.02B3,2013-01-21 23:20:00,
2013-01-21 18:25:00,11.3,1.9,29.68,West,270,7.0,15.0,65,0.00,,,0.00,WeatherCatV1.02B3,2013-01-21 23:25:00,
2013-01-21 18:30:00,11.5,1.7,29.67,West,270,6.0,16.0,64,0.00,,,0.00,WeatherCatV1.02B3,2013-01-21 23:30:00,
2013-01-21 18:35:00,11.5,1.7,29.67,West,270,6.0,16.0,64,0.00,,,0.00,WeatherCatV1.02B3,2013-01-21 23:35:00,
2013-01-21 18:40:00,11.5,1.7,29.67,West,270,6.0,16.0,64,0.00,,,0.00,WeatherCatV1.02B3,2013-01-21 23:40:00,
2013-01-21 18:45:00,11.5,1.7,29.67,West,270,6.0,16.0,64,0.00,,,0.00,WeatherCatV1.02B3,2013-01-21 23:45:00,
2013-01-21 18:50:00,11.5,1.7,29.67,West,270,6.0,16.0,64,0.00,,,0.00,WeatherCatV1.02B3,2013-01-21 23:50:00,
2013-01-21 18:55:00,11.5,1.7,29.67,West,270,6.0,16.0,64,0.00,,,0.00,WeatherCatV1.02B3,2013-01-21 23:55:00,
2013-01-21 19:00:00,11.5,1.7,29.67,West,270,6.0,16.0,64,0.00,,,0.00,WeatherCatV1.02B3,2013-01-22 00:00:00,
2013-01-21 19:05:00,11.0,3.8,29.68,West,270,6.0,14.0,72,0.00,,,0.00,WeatherCatV1.02B3,2013-01-22 00:05:00,
2013-01-21 19:10:00,11.0,3.8,29.68,West,270,6.0,14.0,72,0.00,,,0.00,WeatherCatV1.02B3,2013-01-22 00:10:00,
2013-01-21 19:15:00,11.0,3.8,29.68,West,270,6.0,14.0,72,0.00,,,0.00,WeatherCatV1.02B3,2013-01-22 00:15:00,
2013-01-21 19:20:00,11.0,3.8,29.68,West,270,6.0,14.0,72,0.00,,,0.00,WeatherCatV1.02B3,2013-01-22 00:20:00,
2013-01-21 19:25:00,11.0,3.8,29.68,West,270,6.0,14.0,72,0.00,,,0.00,WeatherCatV1.02B3,2013-01-22 00:25:00,
2013-01-21 19:30:00,11.0,3.8,29.68,West,270,6.0,14.0,72,0.00,,,0.00,WeatherCatV1.02B3,2013-01-22 00:30:00,
2013-01-21 19:35:00,10.8,3.9,29.69,West,270,7.0,19.0,73,0.00,,,0.00,WeatherCatV1.02B3,2013-01-22 00:35:00,
2013-01-21 19:40:00,10.8,3.9,29.69,West,270,7.0,19.0,73,0.00,,,0.00,WeatherCatV1.02B3,2013-01-22 00:40:00,
2013-01-21 19:45:00,10.8,3.9,29.69,West,270,7.0,19.0,73,0.00,,,0.00,WeatherCatV1.02B3,2013-01-22 00:45:00,
2013-01-21 19:50:00,10.8,3.9,29.69,West,270,7.0,19.0,73,0.00,,,0.00,WeatherCatV1.02B3,2013-01-22 00:50:00,
2013-01-21 19:55:00,10.8,3.9,29.69,West,270,7.0,19.0,73,0.00,,,0.00,WeatherCatV1.02B3,2013-01-22 00:55:00,
2013-01-21 20:00:00,10.8,3.9,29.69,West,270,7.0,19.0,73,0.00,,,0.00,WeatherCatV1.02B3,2013-01-22 01:00:00,
2013-01-21 20:05:00,10.8,5.3,29.69,West,270,7.0,17.0,78,0.00,,,0.00,WeatherCatV1.02B3,2013-01-22 01:05:00,
2013-01-21 20:10:00,10.8,5.3,29.69,West,270,7.0,17.0,78,0.00,,,0.00,WeatherCatV1.02B3,2013-01-22 01:10:00,
2013-01-21 20:15:00,10.8,5.3,29.69,West,270,7.0,17.0,78,0.00,,,0.00,WeatherCatV1.02B3,2013-01-22 01:15:00,
2013-01-21 20:20:00,10.8,5.3,29.69,West,270,7.0,17.0,78,0.00,,,0.00,WeatherCatV1.02B3,2013-01-22 01:20:00,
2013-01-21 20:25:00,10.8,5.3,29.69,West,270,7.0,17.0,78,0.00,,,0.00,WeatherCatV1.02B3,2013-01-22 01:25:00,
2013-01-21 20:30:00,10.8,5.3,29.69,West,270,7.0,17.0,78,0.00,,,0.00,WeatherCatV1.02B3,2013-01-22 01:30:00,
2013-01-21 20:35:00,10.7,4.9,29.70,West,270,6.0,20.0,77,0.00,,,0.00,WeatherCatV1.02B3,2013-01-22 01:35:00,
2013-01-21 20:40:00,10.7,4.9,29.70,West,270,6.0,20.0,77,0.00,,,0.00,WeatherCatV1.02B3,2013-01-22 01:40:00,
2013-01-21 20:45:00,10.7,4.9,29.70,West,270,6.0,20.0,77,0.00,,,0.00,WeatherCatV1.02B3,2013-01-22 01:45:00,
2013-01-21 20:50:00,10.7,4.9,29.70,West,270,6.0,20.0,77,0.00,,,0.00,WeatherCatV1.02B3,2013-01-22 01:50:00,
2013-01-21 20:55:00,10.7,4.9,29.70,West,270,6.0,20.0,77,0.00,,,0.00,WeatherCatV1.02B3,2013-01-22 01:55:00,
2013-01-21 21:00:00,10.7,4.9,29.70,West,270,6.0,20.0,77,0.00,,,0.00,WeatherCatV1.02B3,2013-01-22 02:00:00,
2013-01-21 21:05:00,10.4,4.9,29.70,West,270,5.0,14.0,78,0.00,,,0.00,WeatherCatV1.02B3,2013-01-22 02:05:00,
2013-01-21 21:10:00,10.4,4.9,29.70,West,270,5.0,14.0,78,0.00,,,0.00,WeatherCatV1.02B3,2013-01-22 02:10:00,
2013-01-21 21:15:00,10.4,4.9,29.70,West,270,5.0,14.0,78,0.00,,,0.00,WeatherCatV1.02B3,2013-01-22 02:15:00,
2013-01-21 21:20:00,10.4,4.9,29.70,West,270,5.0,14.0,78,0.00,,,0.00,WeatherCatV1.02B3,2013-01-22 02:20:00,
2013-01-21 21:25:00,10.4,4.9,29.70,West,270,5.0,14.0,78,0.00,,,0.00,WeatherCatV1.02B3,2013-01-22 02:25:00,
2013-01-21 21:30:00,10.4,4.9,29.70,West,270,5.0,14.0,78,0.00,,,0.00,WeatherCatV1.02B3,2013-01-22 02:30:00,
2013-01-21 21:35:00,10.0,4.8,29.71,West,270,6.0,17.0,79,0.00,,,0.00,WeatherCatV1.02B3,2013-01-22 02:35:00,
2013-01-21 21:40:00,10.0,4.8,29.71,West,270,6.0,17.0,79,0.00,,,0.00,WeatherCatV1.02B3,2013-01-22 02:40:00,
2013-01-21 21:45:00,10.0,4.8,29.71,West,270,6.0,17.0,79,0.00,,,0.00,WeatherCatV1.02B3,2013-01-22 02:45:00,
2013-01-21 21:50:00,10.0,4.8,29.71,West,270,6.0,17.0,79,0.00,,,0.00,WeatherCatV1.02B3,2013-01-22 02:50:00,
2013-01-21 21:55:00,10.0,4.8,29.71,West,270,6.0,17.0,79,0.00,,,0.00,WeatherCatV1.02B3,2013-01-22 02:55:00,
2013-01-21 22:00:00,10.0,4.8,29.71,West,270,6.0,17.0,79,0.00,,,0.00,WeatherCatV1.02B3,2013-01-22 03:00:00,
2013-01-21 22:05:00,9.6,4.7,29.72,West,270,6.0,15.0,80,0.00,,,0.00,WeatherCatV1.02B3,2013-01-22 03:05:00,
2013-01-21 22:10:00,9.6,4.7,29.72,West,270,6.0,15.0,80,0.00,,,0.00,WeatherCatV1.02B3,2013-01-22 03:10:00,
2013-01-21 22:15:00,9.6,4.7,29.72,West,270,6.0,15.0,80,0.00,,,0.00,WeatherCatV1.02B3,2013-01-22 03:15:00,
2013-01-21 22:20:00,9.6,4.7,29.72,West,270,6.0,15.0,80,0.00,,,0.00,WeatherCatV1.02B3,2013-01-22 03:20:00,
2013-01-21 22:25:00,9.6,4.7,29.72,West,270,6.0,15.0,80,0.00,,,0.00,WeatherCatV1.02B3,2013-01-22 03:25:00,
2013-01-21 22:30:00,9.4,5.3,29.72,West,270,5.0,13.0,83,0.00,,,0.00,WeatherCatV1.02B3,2013-01-22 03:30:00,
2013-01-21 22:35:00,9.4,5.3,29.72,West,270,5.0,13.0,83,0.00,,,0.00,WeatherCatV1.02B3,2013-01-22 03:35:00,
2013-01-21 22:40:00,9.4,5.3,29.72,West,270,5.0,13.0,83,0.00,,,0.00,WeatherCatV1.02B3,2013-01-22 03:40:00,
2013-01-21 22:45:00,9.4,5.3,29.72,West,270,5.0,13.0,83,0.00,,,0.00,WeatherCatV1.02B3,2013-01-22 03:45:00,
2013-01-21 22:50:00,9.4,5.3,29.72,West,270,5.0,13.0,83,0.00,,,0.00,WeatherCatV1.02B3,2013-01-22 03:50:00,
2013-01-21 22:55:00,9.4,5.3,29.72,West,270,5.0,13.0,83,0.00,,,0.00,WeatherCatV1.02B3,2013-01-22 03:55:00,
2013-01-21 23:00:00,8.8,5.2,29.73,West,270,5.0,13.0,85,0.00,,,0.00,WeatherCatV1.02B3,2013-01-22 04:00:00,
2013-01-21 23:05:00,8.8,5.2,29.73,West,270,5.0,13.0,85,0.00,,,0.00,WeatherCatV1.02B3,2013-01-22 04:05:00,
2013-01-21 23:10:00,8.8,5.2,29.73,West,270,5.0,13.0,85,0.00,,,0.00,WeatherCatV1.02B3,2013-01-22 04:10:00,
2013-01-21 23:15:00,8.8,5.2,29.73,West,270,5.0,13.0,85,0.00,,,0.00,WeatherCatV1.02B3,2013-01-22 04:15:00,
2013-01-21 23:20:00,8.8,5.2,29.73,West,270,5.0,13.0,85,0.00,,,0.00,WeatherCatV1.02B3,2013-01-22 04:20:00,
2013-01-21 23:25:00,8.8,5.2,29.73,West,270,5.0,13.0,85,0.00,,,0.00,WeatherCatV1.02B3,2013-01-22 04:25:00,
2013-01-21 23:30:00,8.5,5.4,29.73,West,270,6.0,14.0,87,0.00,,,0.00,WeatherCatV1.02B3,2013-01-22 04:30:00,
2013-01-21 23:35:00,8.5,5.4,29.73,West,270,6.0,14.0,87,0.00,,,0.00,WeatherCatV1.02B3,2013-01-22 04:35:00,
2013-01-21 23:40:00,8.5,5.4,29.73,West,270,6.0,14.0,87,0.00,,,0.00,WeatherCatV1.02B3,2013-01-22 04:40:00,
2013-01-21 23:45:00,8.5,5.4,29.73,West,270,6.0,14.0,87,0.00,,,0.00,WeatherCatV1.02B3,2013-01-22 04:45:00,
2013-01-21 23:50:00,8.5,5.4,29.73,West,270,6.0,14.0,87,0.00,,,0.00,WeatherCatV1.02B3,2013-01-22 04:50:00,
2013-01-21 23:55:00,8.5,5.4,29.73,West,270,6.0,14.0,87,0.00,,,0.00,WeatherCatV1.02B3,2013-01-22 04:55:00,